Theta_e
326 326 327 327 327 326 326 326 326 326 324 326 326 326 326 329 337 340 344 346 344 341 330 328 330 331 331 331 332 331 330 330 331 328 326 324 323 322 322 322 323 324 323 322
326 327 326 326 326 327 327 327 327 326 325 326 328 326 330 331 337 339 342 344 342 336 329 330 330 330 331 331 332 331 331 332 333 330 328 327 326 324 323 322 323 324 323 322
326 326 325 326 327 327 327 327 327 327 327 327 325 324 330 333 335 338 340 340 338 334 331 331 329 330 331 331 331 331 332 333 334 333 330 328 327 326 324 321 321 320 319 317
327 325 326 326 327 327 327 326 326 327 327 326 323 322 327 329 334 336 337 339 338 337 335 332 331 331 331 331 331 331 329 327 325 326 324 323 322 320 319 316 315 316 315 315
328 326 326 327 327 326 327 325 325 324 325 324 324 324 329 328 330 331 334 336 336 335 334 332 331 329 325 324 323 321 321 322 321 320 319 317 316 316 315 314 314 314 313 313
327 325 326 327 324 324 325 325 325 324 323 326 326 324 327 327 330 331 331 333 335 335 333 331 326 323 321 319 319 319 319 319 319 317 317 316 316 315 314 314 313 312 311 311
328 328 326 326 328 328 327 326 326 326 324 324 324 324 327 327 328 330 331 332 333 334 332 326 323 321 319 318 317 317 316 317 316 316 316 315 314 314 313 312 311 311 311 311
330 331 328 326 328 328 326 325 326 326 326 324 325 326 329 326 327 327 328 331 332 329 325 323 320 318 317 317 316 316 316 316 315 315 314 313 313 312 311 311 311 311 311 311
330 330 326 324 324 324 326 327 324 327 327 327 325 325 326 326 326 326 327 327 327 325 322 320 318 318 317 317 316 316 315 315 313 312 312 312 312 311 311 310 311 311 311 310
331 332 328 326 323 323 324 323 327 328 331 327 324 325 325 325 326 326 326 326 325 322 320 319 318 317 316 316 315 314 314 312 312 312 312 311 310 310 310 310 311 311 309 309
332 334 331 328 329 327 325 325 325 326 326 327 326 325 325 325 325 325 326 325 323 321 320 319 318 317 316 315 315 313 312 312 312 312 311 310 309 308 309 309 310 309 309 309
331 333 333 329 325 324 326 326 326 327 329 327 327 328 325 325 324 324 325 323 321 320 320 318 317 316 315 315 313 312 312 312 312 311 311 310 309 308 309 309 310 309 309 307
330 333 334 331 327 325 325 324 324 327 328 328 331 330 325 324 324 323 322 321 320 320 319 319 317 316 315 313 312 312 312 312 311 310 310 310 309 308 308 308 309 309 307 306
329 331 330 329 327 325 326 325 324 326 329 328 325 325 325 324 325 324 322 322 321 320 319 318 317 316 314 312 311 312 312 311 311 310 309 308 307 307 307 307 308 307 306 306
332 330 329 327 326 325 324 323 324 326 326 328 327 326 326 325 324 323 322 321 320 319 318 318 317 315 312 311 311 312 312 311 311 309 307 306 306 306 307 307 307 306 306 306
329 331 329 328 326 326 325 325 326 326 326 326 326 326 324 323 322 322 322 321 320 319 318 317 315 313 312 311 311 312 312 311 309 307 307 306 306 306 307 307 305 305 306 307
332 331 332 329 326 325 326 326 325 325 325 325 326 325 324 324 324 323 322 321 320 320 318 316 315 312 311 311 311 312 311 311 310 308 307 306 306 306 307 306 305 305 306 307
333 334 329 328 328 327 325 325 324 326 326 325 325 324 324 324 324 322 321 321 321 318 317 316 313 312 311 311 311 311 311 311 309 307 306 306 306 307 306 305 305 306 306 307
330 332 329 329 326 325 324 325 327 328 329 326 325 324 324 323 324 324 322 320 319 318 316 314 312 311 311 311 311 311 311 309 307 306 305 306 306 307 306 305 305 306 307 308
328 331 331 328 328 326 327 326 326 326 333 326 325 325 324 324 326 325 322 320 318 316 315 313 312 310 310 310 310 310 309 306 307 306 305 305 307 307 307 306 306 306 307 308
331 331 331 327 328 325 324 325 324 332 334 326 325 325 325 326 324 326 321 319 317 316 314 313 311 310 310 309 309 309 307 307 307 306 306 306 306 306 306 306 306 307 308 308
331 332 330 328 327 326 326 325 334 329 331 328 327 326 326 326 325 323 321 319 317 315 314 312 311 310 309 309 309 307 306 306 306 306 306 306 306 306 306 306 307 308 308 307
331 327 327 327 325 331 328 328 329 329 329 327 328 327 326 325 325 323 322 319 317 315 313 312 310 310 309 309 307 305 305 304 305 306 306 306 306 306 306 306 307 308 307 305
326 327 329 328 326 326 328 328 327 327 328 327 327 327 326 326 325 323 321 319 316 314 313 311 310 309 309 308 305 304 304 305 305 306 306 306 306 305 306 307 308 308 303 303
325 327 327 327 327 325 327 326 327 326 326 327 326 326 326 325 325 322 320 318 315 314 312 311 310 309 308 305 304 304 304 304 305 306 306 306 305 305 306 307 308 306 303 303
326 326 328 327 328 329 327 328 325 325 325 325 325 324 324 323 324 320 319 316 315 313 312 310 310 308 305 304 304 304 304 305 305 306 306 306 305 305 306 307 309 306 305 305
Wind_Speed
4 9 6 9 8 6 2 1 4 0 3 7 6 9 11 7 12 14 14 13 13 13 14 14 9 5 4 6 7 8 11 11 12 14 15 17 18 17 17 15 14 14 12 11
10 9 7 6 4 2 3 5 1 4 3 9 9 11 6 6 11 13 12 13 14 13 13 12 10 8 9 10 10 11 12 13 13 15 15 15 17 19 20 19 15 14 13 15
2 12 4 1 1 6 2 8 6 9 11 14 9 15 7 3 7 7 9 11 13 13 13 11 11 10 11 11 13 14 14 15 15 15 17 19 20 22 21 21 19 18 18 18
7 8 2 2 2 7 6 6 8 11 12 10 6 6 5 2 6 10 12 13 13 13 11 11 10 10 11 13 13 13 12 12 12 10 13 11 14 16 16 19 20 20 21 23
6 7 3 3 6 4 7 7 9 10 12 7 5 8 8 1 3 7 11 14 14 13 12 11 10 9 11 8 7 7 8 7 8 9 10 13 15 18 20 22 25 25 29 27
6 2 2 5 2 2 5 9 10 6 4 7 5 5 6 5 6 5 1 9 11 12 12 7 5 6 5 5 7 7 8 9 9 12 14 15 18 20 23 27 28 30 28 26
5 6 4 2 7 7 8 10 5 4 2 4 2 8 7 5 3 4 1 5 9 10 7 4 7 6 5 7 8 10 11 13 13 16 19 20 22 23 26 25 25 22 24 25
3 7 6 2 4 7 5 7 5 5 6 10 5 2 5 3 1 2 4 4 5 3 5 5 4 5 8 9 12 13 14 16 18 22 24 24 24 25 24 22 23 24 22 22
3 1 6 4 1 4 4 4 4 6 6 7 2 3 8 4 5 4 2 3 5 5 4 4 3 6 9 12 13 14 16 20 23 26 26 25 25 24 24 23 22 21 21 22
1 7 1 4 2 4 5 2 4 4 4 8 4 4 2 2 3 5 6 7 5 4 4 4 6 8 11 12 14 16 19 23 26 27 25 25 27 26 24 23 21 21 22 21
3 3 6 5 3 7 3 5 2 4 5 5 8 4 6 5 6 9 8 5 5 5 5 5 8 10 11 14 17 20 22 25 26 25 24 24 25 25 23 21 21 22 22 21
2 2 6 6 2 4 5 6 5 4 3 4 7 9 5 4 7 6 4 3 3 5 6 8 9 11 13 16 19 21 23 24 24 24 23 24 23 21 20 21 21 21 22 27
4 2 5 5 7 5 5 2 3 3 5 10 8 5 3 2 4 3 3 4 5 5 7 8 10 13 15 18 20 21 22 23 23 22 23 23 22 20 21 22 22 23 28 29
1 2 6 8 8 6 8 7 8 7 6 10 11 15 14 11 9 3 6 5 6 6 8 8 10 14 16 18 20 21 21 21 21 21 22 22 21 21 22 23 23 29 29 28
3 6 5 7 6 8 12 12 10 11 12 10 12 14 13 10 7 2 3 5 7 10 9 8 10 14 17 19 20 19 20 19 20 22 21 21 21 22 23 23 28 31 28 28
3 4 5 10 6 9 12 11 10 10 10 10 10 13 4 4 3 3 4 6 9 10 9 10 12 15 17 19 19 19 19 19 20 20 21 22 23 24 24 25 30 30 28 26
6 3 5 8 1 9 12 12 8 4 6 6 8 9 7 7 5 6 7 8 9 9 9 10 12 15 17 19 19 20 19 19 20 21 23 24 24 24 25 30 29 28 27 26
6 6 3 6 6 9 5 4 1 5 6 7 9 8 6 7 6 6 7 8 9 7 8 10 13 16 18 20 19 20 19 20 21 22 23 26 24 25 29 30 29 28 27 25
3 6 3 5 7 11 12 10 6 3 8 5 6 6 5 3 6 13 2 3 6 6 8 10 13 16 18 19 19 20 20 20 20 21 25 26 25 26 28 29 29 29 27 23
5 5 7 4 9 9 4 6 3 2 10 8 3 5 5 3 7 5 2 1 3 5 7 10 13 16 17 18 19 19 18 19 20 23 25 27 25 27 28 29 29 28 26 18
6 6 11 9 9 8 7 4 5 7 5 1 3 5 5 7 6 1 1 2 4 4 7 9 12 15 17 18 17 17 17 18 21 23 25 26 26 28 30 29 28 26 23 18
11 7 7 8 9 13 6 8 6 7 1 2 4 6 8 9 6 6 5 4 4 6 7 9 12 14 16 16 16 16 17 20 21 23 24 25 27 29 29 28 25 23 19 17
10 12 9 7 7 3 11 9 7 4 6 5 6 7 9 9 8 8 6 5 5 5 7 9 11 14 15 15 15 16 18 19 21 22 23 24 27 29 30 25 23 18 14 14
8 4 7 6 12 13 11 13 13 10 10 9 9 10 10 11 7 7 6 4 4 4 7 9 11 13 15 15 14 14 16 17 19 21 22 23 25 30 28 25 21 17 17 12
6 6 10 11 13 12 11 12 11 9 7 10 11 11 11 10 9 8 6 4 4 4 6 8 10 12 14 15 14 14 16 16 19 20 20 22 24 26 25 24 21 21 15 9
7 11 9 11 8 9 10 10 5 8 12 14 13 11 10 12 10 9 5 5 4 3 4 7 9 11 13 13 14 13 14 15 17 18 19 21 23 24 23 20 17 19 16 16
Wind_Direction
166 233 71 56 45 52 47 292 294 221 130 292 265 291 286 207 224 211 202 197 194 191 175 179 202 224 259 278 291 299 300 304 309 302 300 294 292 297 290 292 298 302 306 313
196 95 98 88 69 25 324 298 37 191 185 294 300 287 297 239 225 224 208 201 199 192 181 193 219 241 263 276 285 291 296 299 300 297 293 291 292 290 291 291 289 301 314 317
9 116 121 232 147 313 52 333 337 320 319 273 289 273 197 194 233 221 229 221 213 201 202 211 232 255 272 282 285 287 293 298 298 299 296 292 288 284 282 295 305 304 310 312
104 138 188 235 71 335 305 2 303 298 303 306 1 306 139 127 218 218 221 222 221 213 223 239 254 265 274 283 289 293 299 310 311 313 315 321 307 308 314 300 302 304 305 306
101 173 195 269 39 337 12 317 311 301 283 302 151 274 108 50 265 234 227 225 225 227 225 236 260 311 293 301 296 304 316 327 339 340 335 323 314 310 308 305 303 301 297 295
96 89 285 27 124 346 318 282 253 272 259 232 78 333 103 26 0 353 272 223 228 225 228 248 283 264 289 303 307 312 319 322 327 326 320 318 315 313 310 307 303 301 302 300
172 161 131 245 267 185 315 334 309 246 251 333 75 292 35 33 15 343 24 206 212 217 236 242 249 286 318 316 319 311 308 308 310 312 314 313 309 308 304 305 303 304 300 300
270 167 185 129 313 331 348 329 333 314 328 328 128 247 70 44 50 313 279 258 206 194 225 241 281 312 315 314 307 307 304 304 310 311 311 308 306 306 303 302 303 296 298 297
254 206 121 55 314 307 38 299 10 286 241 262 66 182 196 198 219 236 233 222 207 212 220 246 289 299 309 307 307 308 308 307 311 310 309 307 306 303 301 300 296 292 294 293
171 271 150 113 217 105 296 87 240 185 297 313 333 274 355 348 268 223 241 236 213 216 232 271 302 307 306 307 307 306 310 312 312 312 310 311 309 304 300 299 293 292 293 292
192 254 137 203 184 335 200 213 221 301 294 298 305 21 48 6 0 326 301 234 235 245 267 283 310 309 307 309 315 317 317 315 314 313 312 312 311 309 301 297 295 293 290 290
73 283 272 355 80 295 281 302 290 284 231 250 289 294 76 30 352 330 310 199 229 275 308 309 308 311 309 319 320 321 319 316 316 314 312 312 311 308 302 297 298 295 291 295
168 193 285 241 175 156 249 202 264 262 270 271 283 284 161 270 313 300 255 211 239 273 291 310 310 317 318 323 322 322 321 320 320 316 312 313 311 304 305 306 302 300 301 303
192 197 276 284 337 322 282 254 243 255 278 280 280 309 327 326 329 234 235 254 277 301 316 315 313 319 324 324 323 320 319 321 324 320 315 314 311 307 305 305 301 305 308 303
231 257 241 275 282 279 282 278 263 241 262 272 294 312 324 347 345 286 262 282 288 307 311 317 319 322 321 325 322 318 320 322 326 324 319 317 314 309 309 306 306 311 309 306
191 245 246 270 248 272 272 259 259 255 264 270 279 290 40 336 298 257 265 290 300 308 316 320 321 324 324 325 321 320 319 322 326 323 321 320 317 314 310 307 310 311 308 308
189 189 240 289 307 290 272 249 209 233 248 273 280 346 331 304 287 291 294 299 308 314 317 319 323 324 326 323 320 321 320 320 324 325 324 322 319 313 312 311 309 307 305 306
189 208 256 291 289 263 67 92 351 273 278 251 260 288 309 299 308 291 299 311 309 311 313 319 324 326 325 324 321 323 321 323 329 328 326 324 321 317 314 313 310 306 305 303
228 214 232 270 284 294 269 209 223 241 285 236 262 297 290 292 297 260 188 304 311 316 311 315 323 324 324 323 325 324 326 332 330 332 329 325 322 317 315 314 313 312 312 308
196 244 246 233 277 281 350 148 162 196 281 167 238 277 285 235 290 38 96 305 290 298 305 320 323 323 327 329 327 326 332 330 333 335 328 325 322 318 318 318 316 317 317 320
188 215 234 253 253 272 280 174 169 248 260 134 256 267 248 240 295 63 152 256 291 299 308 319 319 324 331 328 329 327 332 327 335 330 328 327 323 323 325 323 324 327 332 331
222 220 229 254 265 262 132 147 227 278 207 284 254 256 249 255 245 239 244 260 266 281 306 316 321 328 332 331 333 331 332 329 332 332 330 330 326 328 328 329 330 336 344 345
247 250 269 217 252 81 184 237 232 237 286 293 282 279 265 264 249 238 236 241 259 285 310 316 325 325 335 337 339 333 330 331 333 334 334 332 330 333 335 332 333 336 352 352
232 216 239 231 242 253 245 251 254 238 263 282 270 268 272 264 250 228 222 230 245 284 305 321 322 330 334 343 341 337 331 335 334 336 336 335 334 335 338 341 345 352 350 356
293 166 242 243 262 272 252 255 260 241 255 272 269 260 266 258 237 221 210 214 236 281 308 320 325 331 335 340 337 338 336 338 338 337 337 339 337 337 338 346 354 14 16 53
225 262 236 258 355 335 305 24 1 304 300 301 292 280 256 253 232 206 196 191 210 263 307 315 326 333 341 335 338 338 339 341 341 338 340 339 337 338 341 344 5 29 60 71